This demonstration page uses our WeatherBlox Daily Observations layout. Learn more.

Left ArrowRight Arrow

Hourly Observations for June 30, 2019

Temp ( °F °C ) Dew Point ( °F °C ) Humidity (%) Winds ( mph kmh ) Pressure ( in mb ) Visibility ( mi km ) Precip ( " mm )
12:53 am 00:53 Clear 74 23.3 71 21.7 91 91 WNW 3 6 30.06 1018 10 16 N/A
1:53 am 01:53 Clear 74 23.3 70 21.1 88 88 N N/A 30.04 1017 10 16 N/A
2:53 am 02:53 Clear 74 23.3 70 21.1 88 88 WSW 3 6 30.03 1017 10 16 N/A
3:53 am 03:53 Clear 72 22.2 70 21.1 94 94 N N/A 30.02 1017 10 16 N/A
4:53 am 04:53 Partly Cloudy 73 22.8 70 21.1 90 90 N N/A 30.02 1017 10 16 N/A
5:53 am 05:53 Clear 72 22.2 69 20.6 91 91 W 3 6 30.03 1017 10 16 N/A
6:53 am 06:53 Sunny 72 22.2 70 21.1 94 94 W 3 6 30.04 1017 8 13 N/A
7:53 am 07:53 Mostly Cloudy 76 24.4 70 21.1 82 82 WNW 5 7 30.05 1018 10 16 N/A
8:53 am 08:53 Sunny 80 26.7 71 21.7 74 74 N N/A 30.05 1018 10 16 N/A
9:53 am 09:53 Sunny 82 27.8 70 21.1 67 67 NNW 3 6 30.05 1018 10 16 N/A
10:53 am 10:53 Sunny 84 28.9 68 20 59 59 WNW 6 9 30.03 1017 10 16 N/A
11:53 am 11:53 Sunny 86 30 69 20.6 57 57 N 6 9 30.03 1017 10 16 N/A
12:53 pm 12:53 Mostly Sunny 88 31.1 69 20.6 54 54 N 8 13 30.03 1017 10 16 N/A
1:53 pm 13:53 Partly Cloudy 88 31.1 68 20 52 52 NNW 6 9 30.02 1017 10 16 N/A
2:53 pm 14:53 Sunny 90 32.2 67 19.4 47 47 NNE 8 13 30.00 1016 10 16 N/A
3:53 pm 15:53 Sunny 90 32.2 67 19.4 47 47 NNW 12 19 29.98 1015 10 16 N/A
4:53 pm 16:53 Mostly Sunny 91 32.8 67 19.4 45 45 NNW 7 11 29.96 1014 10 16 N/A
5:53 pm 17:53 Sunny 91 32.8 62 16.7 38 38 N 8 13 29.94 1014 10 16 N/A
6:53 pm 18:53 Sunny 89 31.7 64 17.8 43 43 NE 6 9 29.96 1014 10 16 N/A
7:53 pm 19:53 Sunny 86 30 63 17.2 46 46 NE 6 9 29.96 1015 10 16 N/A
8:44 pm 20:44 Mostly Sunny 76 24.4 68 20 77 77 N N/A 29.94 1014 10 16 N/A
8:53 pm 20:53 Mostly Sunny 75 23.9 68 20 79 79 N N/A 29.95 1014 10 16 N/A
9:53 pm 21:53 Clear 73 22.8 68 20 84 84 N N/A 29.97 1015 10 16 N/A
10:53 pm 22:53 Clear 72 22.2 68 20 87 87 N N/A 29.98 1015 10 16 N/A
11:53 pm 23:53 Clear 74 23.3 67 19.4 79 79 W 6 9 30.02 1017 10 16 N/A

Powered by AerisWeather